Cairns, Australia

6:24 AM AEST on January 23, 2017 (GMT +1000)
Cairns

Weather History for 94287 - September, 2012

Change the Weather History Date:

Wednesday, September 26, 2012

  Actual Average Record
Temperature  
Mean Temperature 74 °F -  
Max Temperature 84 °F 85 °F - ()
Min Temperature 63 °F 69 °F - ()
Cooling Degree Days 8    
Growing Degree Days 24 (Base 50)    
Moisture  
Dew Point 65 °F    
Average Humidity 70    
Maximum Humidity 100    
Minimum Humidity 42    
Precipitation  
Precipitation 0.00 in 0.06 in - ()
Sea Level Pressure  
Sea Level Pressure 29.94 in    
Wind  
Wind Speed 5 mph ()    
Max Wind Speed 16 mph    
Max Gust Speed -    
Visibility 7.2 miles    
Events      
T = Trace of Precipitation, MM = Missing Value Source: Averaged Metar Reports

Daily Weather History Graph

Daily Weather History Graph

Search for Another Location

Airport or City:

Trip Planner

Search our weather history database for the weather conditions in past years. The results will help you decide how hot, cold, wet, or windy it might be!

Date:

Astronomy

Sep. 26, 2012 Rise Set
Actual Time 6:03 AM AEST 6:13 PM AEST
Civil Twilight 5:41 AM AEST 6:35 PM AEST
Nautical Twilight 5:16 AM AEST 7:00 PM AEST
Astronomical Twilight 4:51 AM AEST 7:25 PM AEST
Moon 2:51 PM AEST (9/26) 2:56 AM AEST (9/26)
Length of Visible Light 12h 53m
Length of Day
12h 10m
Waxing Gibbous, 83% of the Moon is Illuminated
Sep 26
Waxing Gibbous
Sep 30
Full
Oct 8
Last Quarter
Oct 15
New
Oct 22
First Quarter

Hourly Weather History & Observations

Time (AEST) Temp. Heat Index Dew Point Humidity Pressure Visibility Wind Dir Wind Speed Gust Speed Precip Events Conditions
12:00 AM 68 °F - 64 °F 82% 29.95 in - West 3.5 mph - -  
12:00 AM 68.0 °F - 64.4 °F 88% 29.95 in 6.2 mi West 3.5 mph - N/A   Partly Cloudy
12:30 AM 68.0 °F - 64.4 °F 88% 29.92 in 6.2 mi Calm Calm - N/A   Partly Cloudy
1:00 AM 66 °F - 63 °F 88% 29.94 in - Calm Calm - -  
1:00 AM 66.2 °F - 62.6 °F 88% 29.92 in 6.2 mi Calm Calm - N/A   Partly Cloudy
1:30 AM 66.2 °F - 64.4 °F 94% 29.92 in 6.2 mi WNW 1.2 mph - N/A   Partly Cloudy
2:00 AM 66.2 °F - 64.4 °F 94% 29.92 in 6.2 mi Calm Calm - N/A   Partly Cloudy
2:30 AM 66.2 °F - 62.6 °F 88% 29.89 in 6.2 mi Calm Calm - N/A   Partly Cloudy
3:00 AM 65 °F - 63 °F 90% 29.91 in - Calm Calm - -  
3:00 AM 64.4 °F - 62.6 °F 94% 29.92 in 6.2 mi Calm Calm - N/A   Partly Cloudy
3:30 AM 64.4 °F - 62.6 °F 94% 29.92 in 6.2 mi Calm Calm - N/A   Partly Cloudy
4:00 AM 65 °F - 64 °F 94% 29.93 in - Calm Calm - -  
4:00 AM 64.4 °F - 64.4 °F 100% 29.92 in 6.2 mi Calm Calm - N/A   Scattered Clouds
5:00 AM 66.2 °F - 64.4 °F 94% 29.92 in 6.2 mi Calm Calm - N/A   Scattered Clouds
5:30 AM 66.2 °F - 62.6 °F 88% 29.95 in 6.2 mi Calm Calm - N/A   Mostly Cloudy
6:00 AM 67 °F - 63 °F 83% 29.96 in 19 mi Calm Calm - -   Partly Cloudy
6:00 AM 66.2 °F - 62.6 °F 88% 29.95 in 6.2 mi Calm Calm - N/A   Mostly Cloudy
6:30 AM 68.0 °F - 62.6 °F 83% 29.95 in 6.2 mi SSE 1.2 mph - N/A   Scattered Clouds
7:00 AM 71 °F - 62 °F 65% 29.98 in - SSE 5.8 mph - -  
7:00 AM 69.8 °F - 62.6 °F 78% 29.98 in 6.2 mi SSE 5.8 mph - N/A   Partly Cloudy
7:30 AM 73.4 °F - 60.8 °F 65% 29.98 in 6.2 mi South 5.8 mph - N/A   Partly Cloudy
8:00 AM 77.0 °F - 62.6 °F 61% 29.98 in 6.2 mi SSW 4.6 mph - N/A   Partly Cloudy
8:30 AM 78.8 °F - 64.4 °F 61% 29.98 in 6.2 mi South 8.1 mph - N/A   Partly Cloudy
9:00 AM 80 °F - 64 °F 48% 30.01 in 19 mi SSE 8.1 mph - -   Partly Cloudy
9:00 AM 80.6 °F 82.3 °F 64.4 °F 58% 30.01 in 6.2 mi SSE 8.1 mph - N/A   Partly Cloudy
9:30 AM 82.4 °F 83.9 °F 64.4 °F 54% 30.01 in 6.2 mi South 8.1 mph - N/A   Partly Cloudy
10:00 AM 83 °F - 64 °F 42% 30.01 in - ESE 8.1 mph - -  
10:00 AM 82.4 °F 83.9 °F 64.4 °F 54% 30.01 in 6.2 mi ESE 8.1 mph - N/A   Partly Cloudy
10:30 AM 80.6 °F 81.8 °F 62.6 °F 54% 29.98 in 6.2 mi SE 5.8 mph - N/A   Partly Cloudy
11:00 AM 82.4 °F 83.9 °F 64.4 °F 54% 29.98 in 6.2 mi ENE 9.2 mph - N/A   Partly Cloudy
11:30 AM 82.4 °F 83.9 °F 64.4 °F 54% 29.95 in 6.2 mi ENE 11.5 mph - N/A   Partly Cloudy
12:00 PM 83 °F - 65 °F 46% 29.96 in 19 mi ENE 12.7 mph - -   Partly Cloudy
12:00 PM 82.4 °F 84.6 °F 66.2 °F 58% 29.95 in 6.2 mi ENE 12.7 mph - N/A   Partly Cloudy
12:30 PM 82.4 °F 84.6 °F 66.2 °F 58% 29.92 in 6.2 mi ENE 12.7 mph - N/A   Partly Cloudy
1:00 PM 84 °F - 64 °F 42% 29.93 in - ENE 13.8 mph - -  
1:00 PM 84.2 °F 85.6 °F 64.4 °F 51% 29.92 in 6.2 mi ENE 13.8 mph - N/A   Partly Cloudy
1:30 PM 84.2 °F 85.6 °F 64.4 °F 51% 29.89 in 6.2 mi ENE 16.1 mph - N/A   Partly Cloudy
2:00 PM 84.2 °F 85.6 °F 64.4 °F 51% 29.89 in 6.2 mi ENE 15.0 mph - N/A   Partly Cloudy
2:30 PM 84.2 °F 85.6 °F 64.4 °F 51% 29.89 in 6.2 mi ENE 15.0 mph - N/A   Partly Cloudy
3:00 PM 83 °F - 65 °F 46% 29.88 in 19 mi ENE 15.0 mph - -   Partly Cloudy
3:00 PM 84.2 °F 86.6 °F 66.2 °F 55% 29.89 in 6.2 mi ENE 15.0 mph - N/A   Partly Cloudy
3:30 PM 82.4 °F 83.9 °F 64.4 °F 54% 29.86 in 6.2 mi ENE 13.8 mph - N/A   Partly Cloudy
4:00 PM 82 °F - 65 °F 47% 29.89 in - ENE 13.8 mph - -  
4:00 PM 82.4 °F 83.9 °F 64.4 °F 54% 29.86 in 6.2 mi ENE 13.8 mph - N/A   Partly Cloudy
4:30 PM 82.4 °F 84.6 °F 66.2 °F 58% 29.86 in 6.2 mi ENE 11.5 mph - N/A   Partly Cloudy
5:00 PM 80.6 °F 82.3 °F 64.4 °F 58% 29.89 in 6.2 mi East 13.8 mph - N/A   Partly Cloudy
5:30 PM 78.8 °F - 66.2 °F 65% 29.89 in 6.2 mi East 12.7 mph - N/A   Partly Cloudy
6:00 PM 77 °F - 66 °F 60% 29.91 in - East 11.5 mph - -  
6:00 PM 77.0 °F - 66.2 °F 69% 29.89 in 6.2 mi East 11.5 mph - N/A   Partly Cloudy
6:30 PM 77.0 °F - 66.2 °F 69% 29.92 in 6.2 mi ESE 8.1 mph - N/A   Partly Cloudy
7:00 PM 76 °F - 67 °F 66% 29.94 in - ESE 10.4 mph - -  
7:00 PM 77.0 °F - 66.2 °F 69% 29.92 in 6.2 mi ESE 10.4 mph - N/A   Partly Cloudy
7:30 PM 75.2 °F - 66.2 °F 73% 29.95 in 6.2 mi ESE 8.1 mph - N/A   Partly Cloudy
8:00 PM 75.2 °F - 66.2 °F 73% 29.95 in 6.2 mi SE 6.9 mph - N/A   Partly Cloudy
8:30 PM 73.4 °F - 66.2 °F 78% 29.98 in 6.2 mi South 3.5 mph - N/A   Partly Cloudy
9:00 PM 73 °F - 66 °F 73% 29.99 in - South 4.6 mph - -  
9:00 PM 73.4 °F - 66.2 °F 78% 29.98 in 6.2 mi South 4.6 mph - N/A   Partly Cloudy
9:30 PM 73.4 °F - 66.2 °F 78% 29.98 in 6.2 mi South 4.6 mph - N/A   Partly Cloudy
10:00 PM 73 °F - 66 °F 73% 30.01 in - South 5.8 mph - -  
10:00 PM 73.4 °F - 66.2 °F 78% 30.01 in 6.2 mi South 5.8 mph - N/A   Partly Cloudy
10:30 PM 73.4 °F - 66.2 °F 78% 30.01 in 6.2 mi South 4.6 mph - N/A   Partly Cloudy
11:00 PM 73.4 °F - 66.2 °F 78% 30.01 in 6.2 mi South 5.8 mph - N/A   Partly Cloudy
11:30 PM 73.4 °F - 66.2 °F 78% 30.01 in 6.2 mi SE 5.8 mph - N/A   Partly Cloudy